Probability
0 0 0 0 0 0 0 0 0 0 0 0 0 0 0 0 0 0 0 0 0 0 0 0 0 0 0 0 0 0 0 0 0 0 0 0 0 0 0 0 0 0 0
0 0 0 0 0 0 0 0 0 0 0 0 0 0 0 0 0 0 0 0 0 0 0 0 0 0 0 0 0 0 0 0 0 0 0 0 0 0 0 0 0 0 0
0 0 0 0 0 0 0 0 0 0 0 0 0 0 0 0 0 0 0 0 0 0 0 0 0 0 0 0 0 0 0 0 0 0 0 0 0 0 0 0 0 0 0
0 0 0 0 0 0 0 0 0 0 0 0 0 0 0 0 0 0 0 0 0 0 0 0 0 0 0 0 0 0 0 0 0 0 0 0 0 0 0 0 0 0 0
0 0 0 0 0 0 0 0 0 0 0 0 0 0 0 0 0 0 0 0 0 0 0 0 0 0 0 0 0 0 0 0 0 0 0 0 0 0 0 0 0 0 0
0 0 0 0 0 0 0 0 0 0 0 0 0 0 0 0 0 0 0 0 0 0 0 0 0 0 0 0 0 0 0 0 0 0 0 0 0 0 0 0 0 0 0
0 0 0 0 0 0 0 0 0 0 0 0 0 0 0 0 0 0 0 0 0 0 0 0 0 0 0 0 0 0 0 0 0 0 0 0 0 0 0 0 0 0 0
0 0 0 0 0 0 0 0 0 0 0 0 0 0 0 0 0 0 0 0 0 0 0 0 0 0 0 0 0 0 0 0 0 0 0 0 0 0 0 0 0 0 0
0 0 0 0 0 0 0 0 0 0 0 0 0 0 0 0 0 0 0 0 0 0 0 0 0 0 0 0 0 0 0 0 0 0 0 0 0 0 0 0 0 0 0
0 0 0 0 0 0 0 0 0 0 0 0 0 0 0 0 0 0 0 0 0 0 0 0 0 0 0 0 0 0 0 0 0 0 0 0 0 0 0 0 0 0 0
0 0 0 0 0 0 0 0 0 0 0 0 0 0 0 0 0 0 0 0 0 0 0 0 0 0 0 0 0 0 0 0 0 0 0 0 0 0 0 0 0 0 0
0 0 0 0 0 0 0 0 0 0 0 0 0 0 0 0 0 0 0 0 0 0 0 0 0 0 0 0 0 0 0 0 0 0 0 0 0 0 0 0 0 0 0
0 0 0 0 0 0 0 0 0 0 0 0 0 0 0 0 0 0 0 0 0 0 0 0 0 0 0 0 0 0 0 0 0 0 0 0 0 0 0 0 0 0 0
0 0 0 0 0 0 0 0 0 0 0 0 0 0 0 0 0 0 0 0 0 0 0 0 0 0 0 0 0 0 0 0 0 0 0 0 0 0 0 0 0 0 0
0 0 0 0 0 0 0 0 0 0 0 0 0 0 0 0 0 0 0 0 0 0 0 0 0 0 0 0 0 0 0 0 0 0 0 0 0 0 0 0 0 0 0
0 0 0 0 0 0 0 0 0 0 0 0 0 0 0 0 0 0 0 0 0 0 0 0 0 0 0 0 0 0 0 0 0 0 0 0 0 0 0 0 0 0 0
0 0 0 0 0 0 0 0 0 0 0 0 0 0 0 0 0 0 0 0 0 0 0 0 0 0 0 0 0 0 0 0 0 0 0 0 0 0 0 0 0 0 0
0 0 0 0 0 0 0 0 0 0 0 0 0 0 0 0 0 0 0 0 0 0 0 0 0 0 0 0 0 0 0 0 0 0 0 0 0 0 0 0 0 0 0
0 0 0 0 0 0 0 0 0 0 0 0 0 0 0 0 0 0 0 0 0 0 0 0 0 0 0 0 0 0 0 0 0 0 0 0 0 0 0 0 0 0 0
0 0 0 0 0 0 0 0 0 0 0 0 0 0 0 0 0 0 0 0 0 0 0 0 0 0 0 0 0 0 0 0 0 0 0 0 0 0 0 0 0 0 0
0 0 0 0 0 0 0 0 0 0 0 0 0 0 0 0 0 0 0 0 0 0 0 0 0 0 0 0 0 0 0 0 0 0 0 0 0 0 0 0 0 0 0
0 0 0 0 0 0 0 0 0 0 0 0 0 0 0 0 0 0 0 0 0 0 0 0 0 0 0 0 0 0 0 0 0 0 0 0 0 0 0 0 0 0 0
0 0 0 0 0 0 0 0 0 0 0 0 0 0 0 0 0 0 0 0 0 0 0 0 0 0 0 0 0 0 0 0 0 0 0 0 0 0 0 0 0 0 0
0 0 0 0 0 0 0 0 0 0 0 0 0 0 0 0 0 0 0 0 0 0 0 0 0 0 0 0 0 0 0 0 0 0 0 0 0 0 0 0 0 0 0
0 0 0 0 0 0 0 0 0 0 0 0 0 0 0 0 0 0 0 0 0 0 0 0 0 0 0 0 0 0 0 0 0 0 0 0 0 0 0 0 0 0 0
0 0 0 0 0 0 0 0 0 0 0 0 0 0 0 0 0 0 0 0 0 0 0 0 0 0 0 0 0 0 0 0 0 0 0 0 0 0 0 0 0 0 0
Height
5715 5719 5723 5727 5730 5734 5737 5739 5742 5744 5746 5748 5750 5752 5754 5755 5756 5757 5758 5759 5760 5760 5761 5761 5762 5762 5761 5761 5761 5760 5759 5758 5757 5756 5755 5754 5751 5749 5746 5744 5741 5738 5735
5707 5711 5715 5719 5723 5726 5729 5732 5734 5737 5739 5741 5743 5745 5746 5748 5749 5750 5751 5752 5753 5753 5753 5754 5754 5754 5753 5753 5753 5752 5751 5750 5748 5747 5745 5744 5744 5740 5737 5734 5731 5728 5724
5700 5704 5707 5711 5715 5719 5722 5724 5727 5729 5732 5734 5736 5738 5739 5741 5742 5743 5744 5744 5745 5745 5745 5746 5746 5745 5745 5745 5744 5743 5742 5741 5739 5736 5735 5733 5732 5731 5729 5725 5721 5716 5711
5692 5696 5700 5703 5707 5711 5714 5717 5719 5722 5724 5726 5728 5731 5732 5734 5735 5736 5736 5737 5737 5737 5737 5737 5737 5737 5736 5736 5735 5734 5732 5731 5729 5727 5724 5722 5720 5718 5718 5716 5711 5705 5700
5683 5687 5691 5695 5699 5702 5706 5709 5712 5714 5717 5719 5721 5723 5725 5726 5727 5728 5728 5729 5729 5729 5729 5729 5728 5728 5727 5726 5725 5724 5722 5720 5718 5716 5714 5712 5709 5706 5704 5703 5700 5695 5689
5676 5680 5683 5687 5690 5694 5697 5701 5704 5707 5710 5712 5714 5716 5717 5719 5719 5720 5721 5721 5721 5721 5721 5720 5720 5719 5718 5717 5716 5714 5712 5710 5708 5706 5703 5701 5699 5696 5692 5690 5688 5684 5679
5667 5671 5675 5679 5683 5686 5690 5693 5696 5699 5702 5704 5706 5708 5710 5711 5712 5712 5712 5712 5712 5712 5712 5711 5710 5710 5708 5707 5706 5704 5702 5700 5698 5696 5693 5690 5687 5684 5681 5678 5675 5672 5669
5659 5663 5667 5671 5674 5678 5682 5686 5689 5692 5694 5697 5699 5700 5702 5703 5703 5704 5704 5704 5704 5703 5703 5702 5701 5700 5699 5698 5696 5695 5693 5690 5688 5685 5682 5679 5676 5673 5669 5665 5662 5659 5657
5651 5655 5659 5663 5666 5670 5674 5678 5681 5684 5686 5689 5691 5692 5693 5694 5695 5695 5695 5695 5695 5694 5694 5693 5692 5691 5690 5688 5687 5685 5683 5680 5678 5675 5672 5668 5665 5661 5658 5653 5649 5645 5642
5643 5647 5650 5654 5658 5662 5666 5669 5673 5676 5678 5680 5682 5684 5685 5686 5686 5686 5686 5686 5686 5685 5685 5684 5683 5682 5680 5679 5677 5675 5673 5670 5667 5664 5661 5657 5654 5650 5647 5642 5637 5632 5628
5634 5638 5642 5646 5650 5653 5657 5661 5664 5667 5670 5672 5673 5675 5676 5677 5677 5678 5678 5678 5677 5677 5676 5675 5674 5673 5671 5669 5668 5665 5662 5659 5656 5652 5649 5646 5643 5639 5635 5631 5626 5621 5615
5626 5630 5634 5638 5641 5645 5649 5652 5656 5658 5661 5663 5665 5666 5667 5668 5669 5669 5669 5669 5669 5668 5667 5666 5665 5663 5662 5660 5658 5655 5652 5649 5646 5642 5639 5636 5632 5628 5624 5620 5615 5610 5604
5618 5622 5625 5629 5633 5636 5640 5644 5647 5649 5652 5654 5656 5657 5658 5659 5660 5660 5661 5661 5660 5660 5658 5657 5656 5654 5652 5650 5648 5645 5642 5639 5636 5632 5629 5625 5621 5617 5613 5608 5604 5599 5594
5610 5614 5617 5621 5624 5628 5632 5635 5638 5640 5643 5645 5647 5648 5649 5650 5651 5651 5652 5652 5651 5651 5650 5648 5647 5645 5643 5641 5638 5636 5633 5630 5626 5622 5618 5614 5609 5605 5601 5597 5593 5588 5583
5602 5606 5609 5613 5616 5620 5623 5626 5629 5631 5634 5636 5638 5639 5640 5641 5642 5642 5643 5643 5642 5641 5640 5639 5637 5635 5633 5631 5629 5627 5624 5620 5616 5612 5607 5603 5599 5594 5590 5586 5581 5576 5572
5594 5597 5601 5605 5608 5611 5614 5617 5620 5622 5624 5627 5628 5630 5631 5632 5633 5633 5633 5633 5633 5632 5631 5629 5628 5626 5624 5622 5619 5617 5614 5610 5606 5602 5597 5593 5589 5584 5579 5575 5570 5565 5560
5585 5589 5592 5596 5599 5603 5605 5608 5611 5613 5615 5617 5619 5621 5622 5623 5624 5624 5624 5624 5623 5622 5621 5620 5618 5617 5614 5612 5610 5607 5604 5600 5596 5592 5588 5584 5579 5574 5570 5565 5560 5555 5549
5577 5580 5584 5588 5591 5594 5597 5599 5602 5604 5606 5608 5610 5611 5613 5614 5614 5615 5615 5614 5614 5613 5612 5611 5609 5607 5605 5603 5600 5597 5594 5590 5586 5582 5578 5574 5569 5564 5560 5556 5551 5546 5541
5569 5572 5576 5579 5582 5585 5588 5591 5593 5595 5597 5599 5601 5602 5603 5604 5605 5605 5605 5605 5604 5604 5603 5601 5600 5598 5595 5593 5590 5587 5584 5580 5576 5573 5568 5564 5559 5555 5550 5546 5542 5538 5533
5561 5564 5568 5571 5574 5577 5580 5583 5585 5587 5588 5590 5591 5593 5594 5595 5595 5596 5596 5595 5595 5594 5593 5591 5590 5588 5586 5583 5580 5577 5574 5571 5567 5563 5558 5554 5549 5545 5540 5536 5533 5529 5525
5553 5556 5560 5563 5566 5568 5571 5574 5576 5578 5579 5580 5582 5583 5584 5585 5586 5586 5586 5586 5585 5584 5583 5582 5580 5578 5576 5573 5570 5567 5564 5560 5557 5553 5549 5545 5540 5536 5531 5527 5524 5520 5516
5545 5548 5551 5554 5557 5560 5563 5565 5567 5568 5570 5572 5573 5574 5575 5576 5576 5577 5576 5576 5575 5575 5573 5572 5570 5568 5566 5563 5560 5557 5554 5550 5547 5544 5540 5536 5531 5527 5523 5519 5516 5512 5508
5538 5541 5543 5546 5549 5551 5554 5556 5558 5560 5561 5563 5564 5565 5566 5567 5567 5567 5567 5567 5566 5565 5564 5562 5561 5559 5557 5554 5551 5548 5545 5542 5538 5535 5531 5527 5523 5520 5516 5512 5508 5505 5501
5530 5533 5535 5538 5540 5543 5545 5547 5549 5551 5552 5554 5555 5556 5557 5557 5558 5558 5557 5557 5556 5555 5554 5553 5551 5549 5548 5545 5543 5540 5537 5534 5531 5527 5524 5520 5516 5512 5509 5505 5501 5498 5494
5522 5524 5526 5529 5531 5533 5536 5538 5539 5541 5543 5544 5546 5547 5547 5548 5548 5548 5548 5547 5546 5545 5544 5543 5542 5540 5539 5537 5534 5531 5529 5526 5523 5520 5517 5513 5510 5506 5502 5498 5495 5492 5488
5514 5516 5518 5520 5522 5524 5526 5528 5530 5532 5534 5535 5537 5538 5538 5538 5539 5539 5538 5537 5537 5536 5535 5534 5533 5531 5530 5528 5526 5523 5520 5518 5515 5512 5510 5506 5503 5499 5496 5492 5489 5486 5483
Wind_Speed
39 38 37 37 36 35 34 34 34 34 34 34 34 34 33 33 33 33 33 33 33 33 33 33 34 34 34 35 35 35 36 37 37 38 38 39 39 40 41 42 43 44 45
39 38 38 37 36 35 35 35 34 34 34 34 34 34 33 33 33 33 33 33 33 33 34 34 35 35 35 35 36 36 37 38 39 39 40 40 40 40 41 42 44 45 46
39 39 38 38 37 36 36 36 35 34 34 34 34 34 33 33 33 33 33 33 34 34 35 35 35 36 36 36 37 37 38 39 40 41 41 41 41 41 41 43 44 46 47
39 39 39 38 37 37 36 36 36 35 34 34 34 34 33 33 33 33 33 34 35 35 35 35 36 36 37 37 38 39 40 40 41 41 42 42 43 43 43 43 45 46 47
39 39 39 38 38 38 37 36 36 35 35 34 33 33 33 33 33 34 34 34 35 35 36 36 36 37 37 38 39 40 41 41 42 42 42 42 43 44 45 45 44 45 47
39 39 39 39 38 38 38 37 36 35 35 34 34 33 33 33 34 34 34 35 35 36 36 36 37 37 38 38 39 40 41 41 41 42 42 43 44 45 46 46 45 46 46
38 38 38 38 38 38 37 36 36 35 35 35 34 33 33 33 34 34 35 36 36 36 36 36 37 38 38 39 39 40 40 40 40 41 42 43 44 45 46 47 47 46 46
37 37 37 37 38 38 37 36 35 35 35 35 34 34 33 34 34 35 36 36 36 36 36 37 37 38 38 39 39 39 39 40 41 42 43 44 45 46 47 48 48 48 46
37 37 37 37 37 38 37 36 36 36 35 35 35 34 34 34 35 36 36 36 36 36 36 37 37 38 38 38 38 39 40 41 42 43 44 45 46 46 48 49 49 49 49
37 37 37 37 37 37 37 36 36 36 35 35 35 35 35 35 35 35 35 35 36 36 36 36 37 37 37 38 39 40 41 42 43 44 45 46 46 47 48 49 49 50 51
37 37 37 37 37 37 37 37 36 36 36 36 36 36 36 35 35 34 34 34 35 35 36 37 37 38 38 39 40 41 42 42 43 44 45 46 46 46 48 49 50 50 51
36 36 36 37 37 37 37 37 37 37 37 37 36 36 35 35 35 34 34 34 35 35 36 36 37 38 38 39 40 40 41 43 43 44 45 45 46 47 48 49 49 50 50
35 35 36 37 37 38 38 37 37 37 37 37 37 36 36 35 35 36 36 35 35 36 36 37 37 38 38 39 39 40 41 42 43 44 45 45 46 47 48 48 49 49 50
34 35 35 36 37 37 38 37 37 37 37 37 37 36 36 36 36 36 36 36 36 36 37 37 38 39 39 39 40 40 41 42 43 44 45 46 47 46 46 47 48 49 49
35 35 35 36 36 37 38 37 37 37 37 37 36 36 36 36 36 36 36 36 36 36 37 37 38 38 38 39 39 40 42 42 43 44 46 46 45 45 46 46 47 48 48
35 36 35 35 36 37 37 37 37 37 37 37 36 36 36 36 36 37 37 37 37 37 37 37 37 38 38 39 40 41 42 43 44 45 45 44 44 44 45 46 47 47 46
35 36 36 35 35 36 36 36 37 37 37 37 36 36 37 37 37 36 36 36 37 37 37 37 37 38 39 40 41 42 42 43 44 44 43 42 43 44 44 45 44 44 44
34 35 35 35 35 35 35 36 36 36 36 36 37 37 37 37 37 37 37 37 37 38 38 38 38 39 40 41 42 42 43 44 43 42 42 42 43 43 43 42 42 42 42
34 35 35 35 35 35 35 35 35 36 36 36 36 37 36 36 36 36 37 37 38 38 38 38 39 40 40 41 42 43 43 42 42 42 42 43 43 42 42 42 41 41 39
33 34 34 35 36 35 35 35 34 35 35 35 36 36 36 36 36 36 37 37 38 38 38 39 39 40 40 41 41 42 42 41 41 41 42 42 41 41 41 41 40 39 37
33 33 33 34 34 35 35 35 34 34 35 35 36 36 36 36 36 36 36 37 37 38 38 38 39 39 40 40 41 41 40 40 40 39 39 39 39 39 39 39 38 37 36
32 33 33 33 34 34 34 34 34 34 34 35 35 35 35 35 35 36 36 36 37 37 38 38 38 38 39 39 39 39 38 38 38 38 38 37 37 37 37 36 36 35 34
33 33 33 33 33 34 34 34 34 34 34 34 34 34 34 34 35 35 36 36 37 37 37 37 37 38 38 38 37 37 37 36 36 36 36 35 35 35 34 34 34 33 32
33 33 34 34 33 34 34 35 34 34 34 34 34 33 33 34 34 34 35 35 36 36 36 36 37 37 36 36 36 35 35 35 35 34 33 32 33 33 33 32 32 31 31
32 32 34 35 34 34 34 34 35 35 34 34 34 34 34 33 34 34 34 34 34 34 34 35 35 34 34 34 34 34 33 33 33 32 31 31 32 32 31 31 30 29 29
31 31 32 33 34 34 34 34 34 35 34 34 34 34 34 34 34 34 34 33 33 32 32 32 32 32 32 32 32 32 31 31 30 30 30 31 31 31 29 28 27 28 27
Wind_Direction
236 237 237 238 240 242 243 245 246 248 250 252 253 255 257 258 259 260 261 263 265 266 268 269 270 272 273 275 276 277 279 280 282 283 284 285 286 288 289 290 291 292 292
237 237 238 239 240 242 244 245 246 248 250 252 253 255 256 258 259 261 263 264 266 267 269 270 271 273 274 275 276 278 280 281 282 283 284 285 286 287 289 290 292 292 292
238 238 239 239 240 242 244 245 246 248 250 251 253 255 257 259 260 262 263 265 267 268 270 271 272 273 274 276 277 279 280 282 283 284 285 285 286 286 288 290 292 293 293
238 238 239 240 241 242 244 245 246 248 249 251 253 256 257 259 261 262 263 265 267 269 270 272 273 274 275 276 278 280 281 283 284 285 286 287 288 288 289 291 293 294 293
238 238 239 240 241 242 243 245 246 247 249 252 254 256 257 259 261 263 264 266 268 269 271 272 273 274 276 278 280 281 283 284 285 286 287 288 290 291 291 293 294 294 294
238 238 239 240 241 242 243 245 246 247 249 251 254 256 258 259 261 263 265 267 268 270 272 273 273 274 276 279 281 283 284 285 286 287 287 289 291 292 293 294 295 295 296
238 239 240 241 242 242 243 244 246 247 248 251 253 255 258 260 262 265 266 267 269 270 272 273 274 276 278 281 282 283 284 285 287 288 289 291 292 294 295 296 296 296 296
238 238 239 240 241 241 242 243 244 246 248 250 253 255 258 261 263 265 267 268 268 270 272 274 275 277 279 281 282 283 284 286 287 289 291 292 294 295 296 297 297 296 296
238 238 239 240 240 241 241 242 244 246 248 250 253 256 259 262 264 266 267 268 269 271 273 275 276 278 280 282 283 284 286 287 289 290 292 293 294 296 297 298 298 298 298
238 238 238 238 239 240 241 242 244 246 248 251 254 256 259 262 264 265 266 267 269 271 274 276 278 280 282 283 284 286 287 289 290 291 292 294 295 296 297 298 298 299 299
237 236 237 238 239 240 241 242 244 246 249 251 254 257 259 261 263 264 266 267 269 272 275 277 279 281 282 284 285 287 288 289 291 292 293 294 295 296 297 297 298 299 300
236 235 236 237 239 240 241 243 244 246 249 251 254 256 258 260 262 264 266 269 271 273 276 278 280 282 284 285 286 287 288 291 292 293 294 295 296 297 298 298 298 299 300
235 236 237 237 238 240 242 244 246 247 249 251 254 255 257 259 261 264 267 269 272 274 277 279 281 282 284 285 287 289 291 292 293 294 295 296 297 298 299 298 299 299 300
235 237 238 239 240 240 242 244 246 248 250 251 253 255 257 259 262 265 268 270 273 276 278 280 281 282 284 285 287 290 292 294 295 296 297 298 299 299 299 299 299 300 301
236 238 239 240 241 242 243 245 246 248 250 251 253 255 258 260 262 265 268 271 273 276 278 280 281 282 284 287 289 291 293 294 296 298 300 300 300 300 300 300 301 301 301
237 237 238 239 241 243 244 245 247 249 250 251 253 255 257 260 263 265 268 270 273 276 278 280 282 284 286 288 290 292 294 295 297 299 300 300 300 300 301 301 301 302 302
237 237 238 240 242 244 245 246 248 249 251 252 254 256 257 260 262 265 268 270 273 276 278 280 282 284 287 289 291 292 294 296 297 299 300 300 301 301 302 302 302 302 302
238 239 240 242 243 244 246 247 249 249 251 252 254 256 258 260 263 265 268 270 273 276 278 280 282 284 287 289 291 292 294 297 298 298 299 300 302 302 302 302 302 302 303
240 241 241 242 244 245 246 247 249 249 251 252 254 256 258 261 264 265 268 270 273 276 278 280 282 284 286 289 291 293 295 296 297 299 299 301 302 302 301 302 302 302 302
241 241 241 243 245 245 246 247 248 249 250 252 254 256 259 262 264 266 268 271 274 276 278 279 282 284 286 289 291 293 295 296 297 299 300 301 301 301 301 302 302 302 302
242 240 241 243 245 246 247 248 248 249 251 252 254 257 259 263 266 267 270 273 275 277 278 280 283 285 287 289 292 294 295 297 298 299 300 301 301 301 301 302 303 303 303
243 241 241 243 245 247 248 249 250 251 252 254 256 259 261 263 267 269 272 275 277 279 279 281 283 285 287 290 292 294 295 297 298 299 300 301 302 303 303 303 304 304 304
246 246 244 244 246 248 249 250 251 252 254 256 257 260 263 266 268 271 273 276 278 279 280 281 283 285 288 291 292 294 295 297 298 299 300 302 303 304 304 304 305 305 306
250 250 249 248 248 250 250 251 252 253 254 256 258 260 263 266 269 272 275 277 279 279 281 282 284 286 288 290 292 294 295 297 299 300 301 303 304 305 305 305 306 307 308
252 254 253 252 251 251 251 251 252 252 254 256 259 261 264 267 270 272 275 278 279 280 281 282 283 285 287 289 292 293 295 297 299 301 302 304 305 305 306 307 307 308 310
252 254 254 253 252 251 251 252 253 255 256 257 260 263 266 268 270 272 274 276 279 280 281 283 285 286 287 289 292 294 296 297 299 301 302 304 305 306 306 306 306 308 310